[[{"header":{"parameterUnit":"m.s-1","parameterCategory":1,"la1":30.2992,"la2":30.254,"lo1":-89.0895,"lo2":-89.0443,"dy":0.0025,"dx":0.0025,"nx":19,"ny":19,"refTime":"2026-05-19T09:00:00:Z","depth":0,"parameterNumber":2,"parameterNumberName":"U-component_of_WINDS"},"data":[0,0,0,0.0233,0.0234,0.0267,0.0267,0.031,0.031,0,0,0,0,0,0,0,0,0,0,0,0.0224,0.0224,0.0233,0.0234,0.0267,0.0267,0.031,0.031,0,0,0,0,0,0,0,0,0,0,0,0.0224,0.0224,0.0225,0.0234,0.0267,0.0267,0.031,0.0284,0,0,0,0,0,0,0,0,0,0,0.0252,0.0245,0.0224,0.0225,0.0234,0.0267,0.0267,0.0283,0.0286,0.0295,0,0.0304,0,0.0308,0.0313,0.0313,0,0,0,0.0234,0.0242,0.0251,0.0225,0.0235,0.0267,0.0252,0.0285,0.0288,0.0299,0.0304,0.0306,0.0308,0.0313,0.0314,0.0368,0.0368,0,0,0.0232,0.023,0.0248,0.0253,0.0248,0.0251,0.0253,0.0287,0.0292,0.0304,0.0307,0.0309,0.0314,0.0314,0.0368,0.0368,0,0,0,0.0227,0.0229,0.0237,0.0251,0.0257,0.0252,0.0254,0.0291,0.0293,0.0307,0.031,0.0314,0.0314,0.0367,0.0368,0.038,0,0,0,0.0226,0.0226,0.0236,0.0235,0.0256,0.0274,0.0258,0.0291,0.0295,0.0309,0.0314,0.0315,0.0367,0.0368,0.0379,0.0386,0,0,0,0.0222,0.0226,0.0231,0.0235,0.0249,0.0274,0.0278,0.0292,0.0296,0.0313,0.0315,0.0367,0.0367,0.0378,0.0384,0.04,0,0,0,0.0217,0.0241,0.0231,0.0259,0.0249,0.0281,0.0278,0.0302,0.0318,0.0314,0.0367,0.0368,0.0378,0.0384,0.0399,0.0412,0.0417,0,0,0.0247,0.0245,0.0261,0.0253,0.0287,0.0276,0.0312,0.0328,0.0331,0.0355,0.0357,0.0379,0.0384,0.0399,0.0449,0.0453,0,0,0,0.027,0.0282,0.0291,0.0306,0.0319,0.033,0.0341,0.0347,0.0368,0.0343,0.0389,0.0392,0.0401,0.0407,0.0411,0.0419,0.0371,0.0371,0.0371,0.031,0.0312,0.034,0.0346,0.0361,0.0371,0.0383,0.0393,0.0391,0.0402,0.0409,0.0439,0.0446,0.0449,0.0457,0.0416,0.0416,0.0416,0.0416,0.0353,0.037,0.0367,0.0392,0.0395,0.0416,0.0427,0.0425,0.0445,0.0433,0.0441,0.0429,0.0454,0.0461,0.0417,0.0417,0.0417,0.0417,0.0417,0.038,0.0388,0.0395,0.0417,0.0433,0.0439,0.0458,0.0459,0.0461,0.0469,0.0476,0.0476,0.0476,0.0472,0.0472,0.0472,0.0472,0.0472,0.0473,0.0404,0.0411,0.0427,0.0443,0.0452,0.0465,0.0476,0.0486,0.0496,0.0496,0.0496,0.0493,0.0456,0.0446,0.0474,0.0474,0.0474,0.0474,0.0473,0.0447,0.0437,0.0462,0.0472,0.049,0.0506,0.0508,0.0527,0.0535,0.0544,0.0539,0.0512,0.051,0.0507,0.0499,0.0539,0.0539,0.0539,0.0539,0.0468,0.0468,0.0493,0.0509,0.0524,0.0528,0.0556,0.0564,0.0571,0.0576,0.0571,0.0561,0.0558,0.0557,0.0553,0.0546,0.0597,0.0597,0.0597,0.0495,0.0495,0.0519,0.0526,0.054,0.0552,0.0578,0.0596,0.0602,0.06,0.058,0.0578,0.0561,0.0556,0.0553,0.0547,0.0533,0,0]},{"header":{"parameterUnit":"m.s-1","parameterCategory":1,"la1":30.2992,"la2":30.254,"lo1":-89.0895,"lo2":-89.0443,"dy":0.0025,"dx":0.0025,"nx":19,"ny":19,"refTime":"2026-05-19T09:00:00:Z","depth":0,"parameterNumber":3,"parameterNumberName":"V-component_of_WINDS"},"data":[0,0,0,2.1379,2.1379,2.1387,2.1387,2.1407,2.1407,0,0,0,0,0,0,0,0,0,0,0,2.1384,2.1384,2.1379,2.1379,2.1387,2.1387,2.1407,2.1407,0,0,0,0,0,0,0,0,0,0,0,2.1383,2.1384,2.1384,2.138,2.1387,2.1387,2.1407,2.1397,0,0,0,0,0,0,0,0,0,0,2.1388,2.1399,2.1384,2.1384,2.138,2.1387,2.1387,2.1397,2.1398,2.1408,0,2.1419,0,2.1413,2.1409,2.1409,0,0,0,2.1375,2.1398,2.1394,2.1384,2.138,2.1387,2.1382,2.1397,2.1399,2.141,2.1419,2.142,2.1414,2.1409,2.141,2.1484,2.1485,0,0,2.1374,2.1388,2.1393,2.1395,2.1395,2.1382,2.1382,2.1398,2.1409,2.1419,2.142,2.1414,2.141,2.141,2.1484,2.1485,0,0,0,2.1376,2.1388,2.1384,2.1395,2.1395,2.1382,2.1383,2.1408,2.1406,2.142,2.1414,2.141,2.141,2.1483,2.1484,2.1527,0,0,0,2.1376,2.139,2.1384,2.1393,2.1395,2.1402,2.1393,2.1405,2.1406,2.1414,2.141,2.141,2.1483,2.1484,2.1524,2.1544,0,0,0,2.1381,2.139,2.1393,2.1393,2.1397,2.1401,2.1399,2.1405,2.1403,2.1409,2.141,2.1482,2.1483,2.1522,2.1541,2.1568,0,0,0,2.139,2.1431,2.1394,2.1438,2.1397,2.1427,2.1399,2.1421,2.1432,2.141,2.1483,2.1484,2.1521,2.1538,2.1566,2.1595,2.1608,0,0,2.145,2.1439,2.1463,2.143,2.1471,2.1425,2.1472,2.1468,2.1456,2.1476,2.1477,2.1525,2.154,2.1568,2.1676,2.1686,0,0,0,2.1487,2.1504,2.1512,2.1523,2.1521,2.1521,2.1509,2.1507,2.1523,2.1469,2.1542,2.1551,2.1566,2.1579,2.1588,2.1601,2.1491,2.149,2.149,2.1592,2.1573,2.1612,2.1595,2.1606,2.1592,2.16,2.1595,2.1574,2.1592,2.1597,2.1665,2.1681,2.1687,2.1701,2.1611,2.1611,2.1611,2.1611,2.1677,2.1699,2.167,2.1697,2.1677,2.17,2.1689,2.1673,2.1691,2.1659,2.1672,2.1639,2.17,2.171,2.1614,2.1614,2.1613,2.1613,2.1613,2.1744,2.1752,2.1749,2.1762,2.1775,2.1756,2.1775,2.1756,2.1739,2.1751,2.1756,2.1755,2.1752,2.1755,2.1755,2.1755,2.1755,2.1756,2.1756,2.1815,2.181,2.1829,2.183,2.1834,2.1837,2.1824,2.1828,2.1827,2.1812,2.1812,2.179,2.1709,2.1689,2.1759,2.1759,2.1758,2.1758,2.1758,2.1909,2.1885,2.1913,2.1917,2.1917,2.193,2.1906,2.1915,2.1916,2.1926,2.19,2.1843,2.1831,2.1823,2.1807,2.1904,2.1904,2.1904,2.1904,2.1966,2.1958,2.1982,2.199,2.1996,2.1977,2.2009,2.1999,2.1985,2.1984,2.1968,2.1944,2.1938,2.1929,2.1919,2.1904,2.2023,2.2023,2.2023,2.2023,2.2014,2.2046,2.2031,2.2029,2.2028,2.2058,2.2069,2.2048,2.2028,2.1983,2.1978,2.194,2.1929,2.1908,2.1894,2.1865,0,0]}]]